This demonstration page uses our WeatherBlox Daily Observations layout. Learn more.

Left ArrowRight Arrow

39.92423, -83.80882

Hourly Observations for May 22, 2018

Temp ( °F °C ) Dew Point ( °F °C ) Humidity (%) Winds ( mph kmh ) Pressure ( in mb ) Visibility ( mi km ) Precip ( " mm )
12:56 am 00:56 Mostly Cloudy 66 18.9 65 18.3 96 96 SE 8 13 30.05 1018 10 16.0934 0.06 1.524
1:56 am 01:56 Cloudy with Light Rain 66 18.9 65 18.3 96 96 SE 9 15 30.02 1017 10 16.0934 0.04 1.016
2:56 am 02:56 Cloudy 66 18.9 65 18.3 96 96 S 8 13 30.01 1016 10 16.0934 0.03 0.762
3:56 am 03:56 Partly Cloudy 66 18.9 65 18.3 96 96 SSE 8 13 30 1016 10 16.0934 0.01 0.254
4:38 am 04:38 Cloudy 66 19 64 18 94 94 S 5 7 30 1016 10 16.0934 0 0
4:56 am 04:56 Mostly Cloudy 66 18.9 65 18.3 96 96 S 5 7 30.01 1016 10 16.0934 0 0
5:02 am 05:02 Mostly Cloudy 66 19 64 18 94 94 S 5 7 30 1016 10 16.0934 0 0
5:22 am 05:22 Cloudy 66 19 64 18 94 94 S 6 9 30 1016 10 16.0934 0 0
5:56 am 05:56 Cloudy 66 18.9 65 18.3 96 96 S 6 9 30.01 1016 10 16.0934 0 0
6:05 am 06:05 Cloudy 66 19 64 18 94 94 SSW 3 6 30 1016 10 16.0934 0 0
6:56 am 06:56 Cloudy 66 18.9 65 18.3 96 96 SW 6 9 30.03 1017 9 14.48406 0 0
7:36 am 07:36 Cloudy 66 19 66 19 100 100 SSW 7 11 30.03 1017 8 12.87472 0 0
7:56 am 07:56 Cloudy 67 19.4 66 18.9 97 97 SSW 7 11 30.04 1017 7 11.26538 0 0
8:17 am 08:17 Cloudy with Mist and Fog 66 19 66 19 100 100 SSW 8 13 30.03 1017 6 9.65604 0 0
8:56 am 08:56 Cloudy with Mist and Fog 68 20 67 19.4 96 96 SSW 7 11 30.05 1018 6 9.65604 0 0
9:56 am 09:56 Cloudy with Mist and Fog 70 21.1 67 19.4 90 90 SW 7 11 30.05 1018 6 9.65604 0 0
10:56 am 10:56 Cloudy with Mist and Fog 71 21.7 68 20 90 90 SW 8 13 30.05 1018 6 9.65604 0 0
11:56 am 11:56 Cloudy 72 22.2 68 20 87 87 undefined N/A 30.05 1018 9 14.48406 0 0
12:13 pm 12:13 Cloudy with Haze 73 23 70 21 89 89 VRB 6 9 30.03 1017 1.25 2.011675 0 0
12:21 pm 12:21 Cloudy 73 23 68 20 83 83 WSW 6 9 30.03 1017 10 16.0934 0 0
12:32 pm 12:32 Mostly Cloudy 75 24 70 21 83 83 WSW 10 17 30.03 1017 10 16.0934 0 0
12:40 pm 12:40 Mostly Cloudy 75 24 70 21 83 83 WSW 5 7 30.03 1017 10 16.0934 0 0
12:52 pm 12:52 Mostly Cloudy 77 25 70 21 79 79 W 7 11 30.03 1017 10 16.0934 0 0
12:56 pm 12:56 Mostly Cloudy 78 25.6 69 20.6 74 74 VRB 5 7 30.03 1017 10 16.0934 0 0
1:56 pm 13:56 Partly Cloudy 79 26.1 68 20 69 69 SW 12 19 30.01 1016 10 16.0934 0 0
2:56 pm 14:56 Partly Cloudy 79 26.1 67 19.4 67 67 SW 8 13 29.98 1015 10 16.0934 0 0
3:56 pm 15:56 Mostly Cloudy 79 26.1 67 19.4 67 67 undefined N/A 29.96 1014 10 16.0934 0 0
4:56 pm 16:56 Partly Cloudy 82 27.8 68 20 63 63 WSW 13 20 29.94 1014 10 16.0934 0 0
5:56 pm 17:56 Mostly Cloudy 79 26.1 66 18.9 65 65 W 14 22 29.93 1014 10 16.0934 0 0
6:56 pm 18:56 Mostly Cloudy with Light Rain 77 25 68 20 74 74 WNW 8 13 29.94 1014 10 16.0934 0 0.0254
7:56 pm 19:56 Mostly Cloudy 76 24.4 65 18.3 69 69 NNW 13 20 29.96 1015 10 16.0934 0 0.0254
8:56 pm 20:56 Partly Cloudy 73 22.8 62 16.7 69 69 N 12 19 29.97 1015 10 16.0934 0 0
9:56 pm 21:56 Mostly Clear 70 21.1 61 16.1 73 73 NNW 8 13 29.99 1016 10 16.0934 0 0
10:56 pm 22:56 Clear 67 19.4 61 16.1 81 81 N 7 11 30.02 1017 10 16.0934 0 0
11:56 pm 23:56 Clear 64 17.8 60 15.6 87 87 NNW 7 11 30.04 1017 10 16.0934 0 0

Powered by AerisWeather